When you browse on this site, cookies collect data to enhance your experience and personalize the content and advertising you see.
Visit our Privacy Policy to learn more. By continuing to use the site, you agree to this use of cookies and data.
  • In Netherlands
  • List of Countries
  • For 7 days
  • Water Temperature
  • Satellite Maps
  • Weather Map
  • Weather Widgets
  • user-avatar
    Login

    Hourly Weather Diapaga

    Today, 21 May, Tuesday

    Time Temperature Precipitation Wind Pressure Humidity
    00:00 +36°C° 0 mm 3 mps 735 mmHg 49%
    01:00 +35°C° 0.7 mm 3 mps 735 mmHg 52%
    02:00 +34°C° 0.7 mm 3 mps 734 mmHg 54%
    03:00 +34°C° 0.7 mm 4 mps 734 mmHg 57%
    04:00 +33°C° 0.5 mm 4 mps 734 mmHg 59%
    05:00 +32°C° 0.5 mm 4 mps 735 mmHg 61%
    06:00 +30°C° 0 mm 5 mps 735 mmHg 61%
    07:00 +32°C° 0 mm 4 mps 735 mmHg 57%
    08:00 +31°C° 0 mm 3 mps 736 mmHg 53%
    09:00 +33°C° 0 mm 3 mps 736 mmHg 48%
    10:00 +35°C° 0 mm 2 mps 736 mmHg 43%
    11:00 +36°C° 0 mm 2 mps 735 mmHg 38%
    12:00 +36°C° 0 mm 4 mps 736 mmHg 42%
    13:00 +36°C° 0 mm 4 mps 735 mmHg 40%
    14:00 +37°C° 0 mm 3 mps 734 mmHg 38%
    15:00 +37°C° 0 mm 3 mps 734 mmHg 37%
    16:00 +37°C° 0 mm 2 mps 733 mmHg 37%
    17:00 +36°C° 0 mm 1 mps 733 mmHg 37%
    18:00 +35°C° 0 mm 1 mps 733 mmHg 37%
    19:00 +35°C° 0 mm 1 mps 733 mmHg 38%
    20:00 +34°C° 0 mm 1 mps 733 mmHg 39%
    21:00 +34°C° 0 mm 1 mps 734 mmHg 41%
    22:00 +34°C° 0 mm 1 mps 734 mmHg 40%
    23:00 +34°C° 0 mm 1 mps 734 mmHg 40%

    Tomorrow, 22 May, Wednesday

    Time Temperature Precipitation Wind Pressure Humidity
    00:00 +33°C° 0 mm 1 mps 734 mmHg 40%
    01:00 +33°C° 0 mm 1 mps 734 mmHg 41%
    02:00 +33°C° 0 mm 1 mps 733 mmHg 42%
    03:00 +32°C° 0 mm 2 mps 733 mmHg 43%
    04:00 +32°C° 0 mm 2 mps 733 mmHg 45%
    05:00 +31°C° 0 mm 2 mps 733 mmHg 46%
    06:00 +31°C° 0 mm 3 mps 734 mmHg 47%
    07:00 +34°C° 0 mm 3 mps 734 mmHg 42%
    08:00 +35°C° 0 mm 3 mps 735 mmHg 36%
    09:00 +37°C° 0 mm 3 mps 735 mmHg 31%
    10:00 +38°C° 0 mm 3 mps 735 mmHg 28%
    11:00 +40°C° 0 mm 2 mps 735 mmHg 25%
    12:00 +42°C° 0 mm 2 mps 735 mmHg 22%
    13:00 +42°C° 0 mm 2 mps 734 mmHg 21%
    14:00 +42°C° 0 mm 2 mps 733 mmHg 20%
    15:00 +43°C° 0 mm 2 mps 732 mmHg 20%
    16:00 +42°C° 0 mm 2 mps 732 mmHg 20%
    17:00 +42°C° 0 mm 2 mps 732 mmHg 21%
    18:00 +41°C° 0 mm 2 mps 732 mmHg 22%
    19:00 +40°C° 0 mm 2 mps 732 mmHg 24%
    20:00 +40°C° 0 mm 1 mps 733 mmHg 25%
    21:00 +39°C° 0 mm 1 mps 733 mmHg 27%
    22:00 +38°C° 0 mm 2 mps 733 mmHg 29%
    23:00 +38°C° 0 mm 2 mps 733 mmHg 31%

    Day after tomorrow, 23 May, Thursday

    Time Temperature Precipitation Wind Pressure Humidity
    00:00 +37°C° 0 mm 2 mps 733 mmHg 32%
    01:00 +37°C° 0 mm 3 mps 733 mmHg 34%
    02:00 +36°C° 0 mm 4 mps 733 mmHg 36%
    03:00 +35°C° 0 mm 4 mps 733 mmHg 38%
    04:00 +34°C° 0 mm 4 mps 733 mmHg 45%
    05:00 +33°C° 0 mm 4 mps 734 mmHg 52%
    06:00 +30°C° 0 mm 5 mps 734 mmHg 59%
    07:00 +33°C° 0 mm 4 mps 734 mmHg 54%
    08:00 +34°C° 0 mm 4 mps 735 mmHg 49%
    09:00 +36°C° 0 mm 3 mps 735 mmHg 44%
    10:00 +37°C° 0 mm 3 mps 735 mmHg 40%
    11:00 +39°C° 0 mm 3 mps 735 mmHg 35%
    12:00 +40°C° 0 mm 3 mps 734 mmHg 30%
    13:00 +40°C° 0 mm 3 mps 734 mmHg 29%
    14:00 +40°C° 0 mm 2 mps 733 mmHg 28%
    15:00 +40°C° 0 mm 2 mps 732 mmHg 28%
    16:00 +40°C° 0 mm 2 mps 732 mmHg 28%
    17:00 +40°C° 0 mm 2 mps 732 mmHg 29%
    18:00 +40°C° 0 mm 2 mps 732 mmHg 29%
    19:00 +39°C° 0.1 mm 2 mps 733 mmHg 31%
    20:00 +37°C° 0.1 mm 1 mps 733 mmHg 32%
    21:00 +37°C° 0.1 mm 1 mps 734 mmHg 34%
    22:00 +37°C° 0 mm 2 mps 733 mmHg 34%
    23:00 +37°C° 0 mm 2 mps 733 mmHg 35%

    24 May, Friday

    Time Temperature Precipitation Wind Pressure Humidity
    00:00 +37°C° 0 mm 2 mps 733 mmHg 36%
    01:00 +36°C° 0.1 mm 3 mps 733 mmHg 39%
    02:00 +35°C° 0.1 mm 3 mps 733 mmHg 42%
    03:00 +35°C° 0.1 mm 4 mps 733 mmHg 45%
    04:00 +34°C° 0 mm 4 mps 733 mmHg 47%
    05:00 +34°C° 0 mm 4 mps 733 mmHg 48%
    06:00 +33°C° 0 mm 4 mps 733 mmHg 50%
    07:00 +34°C° 0 mm 5 mps 734 mmHg 49%
    08:00 +35°C° 0 mm 5 mps 734 mmHg 48%
    09:00 +36°C° 0 mm 6 mps 735 mmHg 47%
    10:00 +37°C° 0 mm 5 mps 735 mmHg 44%
    11:00 +39°C° 0 mm 5 mps 734 mmHg 41%
    12:00 +41°C° 0 mm 4 mps 734 mmHg 38%
    13:00 +40°C° 0 mm 3 mps 733 mmHg 37%
    14:00 +40°C° 0 mm 2 mps 733 mmHg 36%
    15:00 +40°C° 0 mm 1 mps 732 mmHg 35%
    16:00 +40°C° 0.1 mm 2 mps 732 mmHg 36%
    17:00 +39°C° 0.1 mm 2 mps 732 mmHg 37%
    18:00 +39°C° 0.1 mm 2 mps 732 mmHg 38%
    19:00 +38°C° 0 mm 2 mps 732 mmHg 39%
    20:00 +38°C° 0 mm 2 mps 733 mmHg 40%
    21:00 +38°C° 0 mm 2 mps 733 mmHg 41%
    22:00 +37°C° 0 mm 2 mps 733 mmHg 44%
    23:00 +36°C° 0 mm 3 mps 733 mmHg 48%

    25 May, Saturday

    Time Temperature Precipitation Wind Pressure Humidity
    00:00 +35°C° 0 mm 3 mps 733 mmHg 51%
    01:00 +35°C° 0.1 mm 4 mps 733 mmHg 53%
    02:00 +34°C° 0.1 mm 4 mps 733 mmHg 55%
    03:00 +33°C° 0.1 mm 5 mps 732 mmHg 57%
    04:00 +33°C° 0.5 mm 4 mps 733 mmHg 58%
    05:00 +32°C° 0.5 mm 4 mps 733 mmHg 59%
    06:00 +31°C° 0.5 mm 3 mps 733 mmHg 60%
    07:00 +33°C° 0.1 mm 3 mps 734 mmHg 55%
    08:00 +34°C° 0.1 mm 3 mps 735 mmHg 50%
    09:00 +35°C° 0.1 mm 3 mps 735 mmHg 46%
    10:00 +37°C° 0.2 mm 3 mps 735 mmHg 42%
    11:00 +38°C° 0.2 mm 4 mps 734 mmHg 38%
    12:00 +40°C° 0.2 mm 4 mps 734 mmHg 34%
    13:00 +41°C° 0 mm 4 mps 733 mmHg 32%
    14:00 +42°C° 0 mm 4 mps 733 mmHg 30%
    15:00 +42°C° 0 mm 3 mps 732 mmHg 28%
    16:00 +42°C° 0 mm 3 mps 732 mmHg 29%
    17:00 +40°C° 0 mm 3 mps 732 mmHg 30%
    18:00 +40°C° 0 mm 2 mps 733 mmHg 30%
    19:00 +39°C° 0 mm 2 mps 733 mmHg 32%
    20:00 +39°C° 0 mm 2 mps 733 mmHg 34%
    21:00 +38°C° 0 mm 2 mps 733 mmHg 36%
    22:00 +38°C° 0 mm 3 mps 733 mmHg 39%
    23:00 +37°C° 0 mm 4 mps 733 mmHg 41%

    26 May, Sunday

    Time Temperature Precipitation Wind Pressure Humidity
    00:00 +37°C° 0 mm 4 mps 733 mmHg 43%
    01:00 +36°C° 0 mm 4 mps 733 mmHg 49%
    02:00 +34°C° 0 mm 4 mps 733 mmHg 55%
    03:00 +33°C° 0 mm 5 mps 733 mmHg 61%
    04:00 +33°C° 0 mm 4 mps 733 mmHg 61%
    05:00 +33°C° 0 mm 4 mps 734 mmHg 62%
    06:00 +33°C° 0 mm 4 mps 734 mmHg 62%
    07:00 +34°C° 0 mm 4 mps 734 mmHg 59%
    08:00 +35°C° 0 mm 4 mps 735 mmHg 55%
    09:00 +36°C° 0 mm 4 mps 735 mmHg 51%
    10:00 +37°C° 0 mm 4 mps 734 mmHg 46%
    11:00 +40°C° 0 mm 4 mps 734 mmHg 41%
    12:00 +41°C° 0 mm 4 mps 734 mmHg 36%
    13:00 +42°C° 0 mm 3 mps 733 mmHg 32%
    14:00 +43°C° 0 mm 3 mps 732 mmHg 29%
    15:00 +43°C° 0 mm 2 mps 731 mmHg 26%
    16:00 +42°C° 0 mm 2 mps 732 mmHg 26%
    17:00 +42°C° 0 mm 2 mps 732 mmHg 27%
    18:00 +41°C° 0 mm 2 mps 732 mmHg 27%
    19:00 +40°C° 0 mm 3 mps 732 mmHg 31%
    20:00 +41°C° 0 mm 4 mps 732 mmHg 34%
    21:00 +40°C° 0 mm 5 mps 733 mmHg 38%
    22:00 +38°C° 0 mm 4 mps 733 mmHg 40%
    23:00 +37°C° 0 mm 4 mps 732 mmHg 43%
    Show more